Location: Newark
(42.8481°N, 0.4872°E)
Time: 23:51:41
(UTC+00:00)

Transit 2A - Pass Details

Date: 01 November 2020
Orbit: 595 x 963 km, 66.7° (Epoch: 03 December)

Event Time Altitude Azimuth Distance (km) Brightness Sun altitude
Rises 06:19:14 0° 336° (NNW) 3,513 9.0 -3.2°
Reaches altitude 10° 06:24:41 10° 16° (NNE) 2,461 8.6 -2.2°
Maximum altitude 06:25:33 10° 25° (NNE) 2,418 8.7 -2.1°
Drops below altitude 10° 06:26:25 10° 34° (NE) 2,421 8.8 -1.9°
Sets 06:31:27 0° 76° (ENE) 3,224 10.3 -1.1°
